{"data":{"norad_id":67428,"intl_designator":"2026-005AA","name":"STARLINK-36464","alt_names":[],"object_type":"PAYLOAD","status":"ACTIVE","operator":null,"country":"US","launch_date":"2026-01-12","launch_site_code":"AFETR","launch_vehicle":null,"mission":null,"orbit_class":"UNKNOWN","rcs_meters":null,"size_class":null,"mass_kg":null,"dimensions":null,"purposes":["comms"],"wikipedia_slug":null,"has_3d_model":false,"image_url":null,"decayed_at":null,"tle_current":{"epoch":"2026-09-19T22:19:30.651168Z","epoch_age_seconds":124632,"freshness":"FRESH","line1":"1 67428U 26005AA  26262.93021587  .00016261  00000+0  59889-3 0  9990","line2":"2 67428  42.9980 220.9588 0000431 217.5898 142.4924 15.27593273 38396","mean_motion":15.27593273,"eccentricity":4.31e-5,"inclination_deg":42.998,"raan_deg":220.9588,"arg_perigee_deg":217.5898,"mean_anomaly_deg":142.4924,"bstar":0.00059889,"rev_number":3839,"period_min":94.26592964579,"perigee_km":482.71363678271,"apogee_km":483.30506759827,"semimajor_km":6861.1463521905,"source":"CELESTRAK","updated_at":"2026-09-20T09:00:43.524692Z"}}}